Погода Октябрьский Городок

Погода Октябрьский Городок : погода сейчас, прогноз погоды и архив. Всё, что Вы хотите узнать о погоде Октябрьский Городок!

Поиск расширенной информации на нашем сайте:

Другие новости

Новости СМИ2

Главная страница сайта

Новости сайта

03.07.2017

Напоминаем, что на нашем специализированном сайте Метеоцентр.Азия вы можете получить высокодетализированные автоматические прогнозы погоды по пунктам России, СНГ и мира в авиационном формате (включающие направление и скорость ветра, видимость, явления погоды, количество и форму облачности, нижнюю и верхнюю границу облачности).


Погода Октябрьский Городок - сегодня

Время (UTC), дата Ветер
(°,м/с) 
Видим.   Явления Облачность Т
(°С)
Тd
(°С)
f(%) Тe
(°С)
Pmin
(гПа)
dP
(гПа)
Po
(мм)
O2
(г/м3)
Тmin Tmax R s Состояние
почвы
09 18.07.17 300 (СЗ) 20000 м    9/9 300 м кучево-дожд. 
[Cb cap]
+20.9 +16.9 78 +33  1016.3  1.5  745  275           
12 18.07.17 330 (СЗ) 20000 м    4/4 300 м 
[Cu med, cong]
+23.6 +16.2 63 +35  1015.4  -0.5  744  273           
15 18.07.17 340 (С) 20000 м    ясно 
+23.5 +13.3 53 +30  1015.4  -0.2  744  274    +23.6  0.0     
18 18.07.17 350 (С) 20000 м    3/0 верхняя 
[Ci fib]
+18.5 +12.6 68 +24  1016.3  0.5  745  279           
21 18.07.17 350 (С) 20000 м    ясно 
+14.9 +11.8 82 +19  1017  0.4  745  282           
00 19.07.17 320 (СЗ) 20000 м    ясно 
+13.9 +11.4 85 +17  1017.1  745  283           
03 19.07.17 330 (СЗ) 20000 м    ясно 
+13.7 +11.2 85 +18  1017.3  0.2  745  284  +13.7        влажная 
06 19.07.17 060 (СВ) 20000 м    3/3 600 м 
[Cu hum]
+21.6 +10.7 50 +24  1016.9  0.2  745  276           
09 19.07.17 030 (СВ) 20000 м    ясно 
+23.8 +9.5 40 +24  1016.4  -0.3  745  274           
12 19.07.17 090 (В) 20000 м    ясно 
+25.2 +9 36 +25  1015.2  -0.9  744  273           
15 19.07.17 050 (СВ) 20000 м    1/1 600 м 
[Cu hum]
+24.6 +8.6 36 +25  1014.8  -0.5  744  274    +25.2       
18 19.07.17 270 (З) 20000 м    3/3 600 м 
[Cu hum]
+18 +13 73 +25  1015.3  744  279           
21 19.07.17 030 (СВ) 20000 м    5/0 верхняя 
[Ci fib]
+18.5 +12.4 68 +25  1014.8  -0.5  744  278           
00 20.07.17 030 (СВ) 20000 м    6/0 верхняя 
[Ci sp]
+16.2 +12.6 79 +22  1014.6  -0.3  743  280           
03 20.07.17 050 (СВ) 20000 м    9/0 средняя 
[Ac trans]
+17.9 +13.3 74 +25  1013.8  -0.7  743  278  +16.2        влажная 
06 20.07.17 060 (СВ) 20000 м    9/0 
[Sc]
+21.6 +13.2 59 +28  1013.4  -0.1  743  275           
09 20.07.17 030 (СВ) 5-10{11}  20000 м    5/0 средняя 
[Ac trans]
+24 +14 54 +31  1013.2  743  272           
12 20.07.17 050 (СВ) 5-10  20000 м    8/0 средняя, верхняя 
[Ac trans|Ci]
+25.3 +14.6 52 +34  1012  -1.1  742  271           
15 20.07.17 150 (ЮВ) 4{10}  20000 м    5/0 верхняя 
[Ci fib]
+25.1 +14.8 53 +34  1011.4  -0.6  741  271    +25.6       
18 20.07.17 300 (СЗ) 20000 м    8/0 средняя 
[Ac trans]
+20.7 +15.3 71 +30  1012.5  0.8  742  275           
21 20.07.17 310 (СЗ) 20000 м    4/0 верхняя 
[Ci]
+19.3 +15.2 77 +29  1012.1  -0.6  742  276           
00 21.07.17 тихо ()   20000 м    5/0 средняя 
[Ac trans]
+18.5 +15.2 81 +28  1011.2  -1  741  276           
03 21.07.17 210 (ЮЗ) 20000 м    8/3 300 м средняя 
[Sc|Ac trans]
+19.4 +15.3 77 +31  1011.9  0.8  741  276  +18.5        сухая 
06 21.07.17 340 (С) 20000 м    ясно 
+23.9 +16.4 63 +35  1011.5  741  271           
09 21.07.17 250 (З) 3{11}  20000 м    6/6 300 м 
[Cu hum]
+26.1 +15.2 51 +35  1011.4  0.1  742  270           
Время (UTC), дата Ветер
(°,м/с) 
Видим.   Явления Облачность Т
(°С)
Тd
(°С)
f(%) Тe
(°С)
Pmin
(гПа)
dP
(гПа)
Po
(мм)
O2
(г/м3)
Тmin Tmax R s Состояние
почвы

Для получения пояснительной информации подведите курсор к названию столбца.

ПОГОДА Октябрьский Городок - архив

Всё, что Вы хотите узнать о погоде Октябрьский Городок - удобно и подробно!

Выберите нужную дату (начиная с 1 января 2015* года) и нажмите кнопку "Найти".
Будут отображены архивные сводки погоды по пункту Октябрьский Городок, начиная с указанной даты.


Отображать данные в формате CSV (для использования в таблицах Excel)


Внимание! Наш архив погоды предназначен исключительно для личного некоммерческого использования в познавательных целях. Если Вам необходимы официальные справки о состоянии погоды (для производственных, юридических, коммерческих и т.п. целей), обращайтесь в органы Росгидромета.

*Примечание: данная дата относится к архиву по метеостанциям СССР (Россия, СНГ, Балтия).
Архив по метеостанциям Зарубежной Европы и Азии (кроме Китая) хранится 10 дней, по другим регионам земного шара (Китай, Африка, Америка, Австралия, Океания) - 1 день.

Октябрьский Городок - район местоположения метеостанции


Название, широта, долгота, высота метеостанции:
Октябрьский Городок 51.6°ш. 45.4°д. 201 м над ур. моря [Российская Федерация]

Дополнительная информация

В oтличие oт бoльшинства пoгoдных сайтoв мы публикуем пoдрoбную метеoинфoрмацию в детальнoм прoфессиoнальнoм фoрмате.

Характеристики температуры и влажнoсти вoздуха измеряются на высoте 2 м в тени вдали oт зданий и деревьев.
Скoрoсть ветра измеряется на высoте 10 м (на урoвне рoста челoвека скoрoсть ветра ниже в 1.5-2 раза). Если метеoстанция нахoдится в гoрoде или в лесу, тo скoрoсть ветра занижена на 2-4 м/с пo сравнению с oткрытым местoм. Скoрoсть ветра над акватoриями крупных рек и oзёр, а также на вершинах хoлмoв на 2-5 м/с выше, чем в oбычных услoвиях.
Атмoсфернoе давление в разных тoчках местнoсти мoжет значительнo oтличаться oт давления на метеoстанции, в зависимoсти oт услoвий рельефа (при пoдъёме на 10 м давление пoнижается примернo на 1 мм рт.ст.).